EN

Hourly Weather Ladorozh

Today, 26 July, Monday

Time Temperature Precipitation Wind Pressure Humidity
00:00 +19°C° 0 mm 2 mps 751 mmHg 71%
01:00 +19°C° 0 mm 2 mps 751 mmHg 73%
02:00 +18°C° 0 mm 2 mps 751 mmHg 75%
03:00 +18°C° 0 mm 2 mps 751 mmHg 77%
04:00 +18°C° 0 mm 2 mps 751 mmHg 78%
05:00 +17°C° 0 mm 3 mps 751 mmHg 80%
06:00 +19°C° 0 mm 3 mps 751 mmHg 74%
07:00 +21°C° 0 mm 3 mps 751 mmHg 67%
08:00 +25°C° 0 mm 4 mps 751 mmHg 59%
09:00 +26°C° 0 mm 4 mps 751 mmHg 54%
10:00 +27°C° 0 mm 4 mps 751 mmHg 49%
11:00 +29°C° 0 mm 4 mps 751 mmHg 44%
12:00 +29°C° 0 mm 4 mps 751 mmHg 44%
13:00 +29°C° 0 mm 4 mps 750 mmHg 43%
14:00 +30°C° 0 mm 5 mps 750 mmHg 40%
15:00 +30°C° 0 mm 4 mps 750 mmHg 44%
16:00 +29°C° 0 mm 4 mps 750 mmHg 49%
17:00 +28°C° 0 mm 3 mps 750 mmHg 53%
18:00 +27°C° 0.1 mm 4 mps 750 mmHg 56%
19:00 +26°C° 0.1 mm 4 mps 749 mmHg 58%
20:00 +25°C° 0.1 mm 4 mps 749 mmHg 61%
21:00 +23°C° 0.2 mm 4 mps 749 mmHg 66%
22:00 +23°C° 0.2 mm 4 mps 750 mmHg 71%
23:00 +22°C° 0.2 mm 4 mps 750 mmHg 76%

Tomorrow, 27 July, Tuesday

Time Temperature Precipitation Wind Pressure Humidity
00:00 +21°C° 0 mm 4 mps 750 mmHg 78%
01:00 +21°C° 0 mm 4 mps 749 mmHg 80%
02:00 +20°C° 0 mm 3 mps 749 mmHg 82%
03:00 +19°C° 0.1 mm 3 mps 749 mmHg 84%
04:00 +19°C° 0.1 mm 3 mps 749 mmHg 85%
05:00 +19°C° 0.1 mm 3 mps 749 mmHg 87%
06:00 +20°C° 0.2 mm 4 mps 749 mmHg 82%
07:00 +21°C° 0.2 mm 4 mps 749 mmHg 77%
08:00 +22°C° 0.2 mm 5 mps 748 mmHg 72%
09:00 +23°C° 0.5 mm 5 mps 748 mmHg 72%
10:00 +25°C° 0.5 mm 5 mps 748 mmHg 72%
11:00 +25°C° 0.5 mm 4 mps 748 mmHg 72%
12:00 +28°C° 0 mm 4 mps 748 mmHg 64%
13:00 +30°C° 0 mm 4 mps 748 mmHg 56%
14:00 +33°C° 0 mm 4 mps 747 mmHg 48%
15:00 +32°C° 0.3 mm 4 mps 747 mmHg 53%
16:00 +30°C° 0.3 mm 4 mps 746 mmHg 58%
17:00 +29°C° 0.3 mm 4 mps 746 mmHg 63%
18:00 +28°C° 0.6 mm 3 mps 746 mmHg 69%
19:00 +26°C° 0.6 mm 3 mps 746 mmHg 75%
20:00 +25°C° 0.6 mm 3 mps 746 mmHg 81%
21:00 +22°C° 0.4 mm 3 mps 747 mmHg 85%
22:00 +21°C° 0.4 mm 3 mps 747 mmHg 90%
23:00 +20°C° 0.4 mm 2 mps 748 mmHg 94%

Day after tomorrow, 28 July, Wednesday

Time Temperature Precipitation Wind Pressure Humidity
00:00 +20°C° 0 mm 2 mps 748 mmHg 95%
01:00 +20°C° 0 mm 2 mps 748 mmHg 95%
02:00 +19°C° 0 mm 2 mps 748 mmHg 95%
03:00 +19°C° 0 mm 2 mps 748 mmHg 95%
04:00 +19°C° 0 mm 2 mps 747 mmHg 95%
05:00 +19°C° 0 mm 2 mps 747 mmHg 94%
06:00 +20°C° 0 mm 2 mps 748 mmHg 88%
07:00 +23°C° 0 mm 2 mps 748 mmHg 81%
08:00 +25°C° 0 mm 2 mps 748 mmHg 74%
09:00 +26°C° 0 mm 1 mps 748 mmHg 67%
10:00 +28°C° 0 mm 1 mps 748 mmHg 60%
11:00 +29°C° 0 mm 1 mps 748 mmHg 52%
12:00 +30°C° 0 mm 1 mps 747 mmHg 49%
13:00 +31°C° 0 mm 1 mps 747 mmHg 46%
14:00 +32°C° 0 mm 1 mps 747 mmHg 43%
15:00 +32°C° 0 mm 1 mps 747 mmHg 43%
16:00 +32°C° 0 mm 1 mps 746 mmHg 42%
17:00 +31°C° 0 mm 1 mps 746 mmHg 42%
18:00 +30°C° 0 mm 1 mps 746 mmHg 50%
19:00 +28°C° 0 mm 1 mps 745 mmHg 57%
20:00 +26°C° 0 mm 2 mps 745 mmHg 64%
21:00 +25°C° 0.4 mm 2 mps 745 mmHg 71%
22:00 +24°C° 0.4 mm 2 mps 745 mmHg 78%
23:00 +21°C° 0.4 mm 2 mps 745 mmHg 86%

29 July, Thursday

Time Temperature Precipitation Wind Pressure Humidity
00:00 +21°C° 0.3 mm 2 mps 745 mmHg 87%
01:00 +20°C° 0.3 mm 2 mps 745 mmHg 89%
02:00 +20°C° 0.3 mm 2 mps 744 mmHg 91%
03:00 +21°C° 0.7 mm 1 mps 744 mmHg 92%
04:00 +20°C° 0.7 mm 1 mps 744 mmHg 94%
05:00 +20°C° 0.7 mm 1 mps 744 mmHg 95%
06:00 +21°C° 0.1 mm 1 mps 744 mmHg 91%
07:00 +21°C° 0.1 mm 2 mps 744 mmHg 87%
08:00 +23°C° 0.1 mm 2 mps 745 mmHg 83%
09:00 +25°C° 0 mm 2 mps 745 mmHg 77%
10:00 +26°C° 0 mm 3 mps 745 mmHg 72%
11:00 +27°C° 0 mm 3 mps 745 mmHg 66%
12:00 +28°C° 0.2 mm 4 mps 745 mmHg 64%
13:00 +28°C° 0.2 mm 4 mps 746 mmHg 63%
14:00 +28°C° 0.2 mm 4 mps 746 mmHg 61%
15:00 +28°C° 0.2 mm 4 mps 746 mmHg 62%
16:00 +28°C° 0.2 mm 4 mps 746 mmHg 63%
17:00 +27°C° 0.2 mm 4 mps 746 mmHg 63%
18:00 +26°C° 0 mm 4 mps 746 mmHg 67%
19:00 +25°C° 0 mm 3 mps 746 mmHg 71%
20:00 +23°C° 0 mm 2 mps 746 mmHg 75%
21:00 +21°C° 0 mm 2 mps 746 mmHg 75%
22:00 +20°C° 0 mm 2 mps 746 mmHg 74%
23:00 +19°C° 0 mm 2 mps 746 mmHg 73%

30 July, Friday

Time Temperature Precipitation Wind Pressure Humidity
00:00 +20°C° 0 mm 2 mps 746 mmHg 72%
01:00 +20°C° 0 mm 2 mps 746 mmHg 72%
02:00 +20°C° 0 mm 2 mps 746 mmHg 71%
03:00 +19°C° 0 mm 2 mps 746 mmHg 72%
04:00 +19°C° 0 mm 2 mps 746 mmHg 72%
05:00 +19°C° 0 mm 2 mps 746 mmHg 73%
06:00 +20°C° 0 mm 2 mps 746 mmHg 69%
07:00 +22°C° 0 mm 3 mps 746 mmHg 65%
08:00 +25°C° 0 mm 3 mps 746 mmHg 61%
09:00 +26°C° 0 mm 3 mps 746 mmHg 55%
10:00 +28°C° 0 mm 4 mps 746 mmHg 48%
11:00 +29°C° 0 mm 4 mps 746 mmHg 42%
12:00 +30°C° 0 mm 4 mps 746 mmHg 40%
13:00 +32°C° 0 mm 4 mps 745 mmHg 39%
14:00 +32°C° 0 mm 4 mps 745 mmHg 37%
15:00 +29°C° 0.4 mm 4 mps 745 mmHg 50%
16:00 +26°C° 0.4 mm 5 mps 745 mmHg 63%
17:00 +22°C° 0.4 mm 5 mps 745 mmHg 77%
18:00 +22°C° 1.7 mm 5 mps 744 mmHg 82%
19:00 +21°C° 1.7 mm 4 mps 744 mmHg 88%
20:00 +20°C° 1.7 mm 4 mps 744 mmHg 93%
21:00 +19°C° 0.4 mm 4 mps 744 mmHg 93%
22:00 +19°C° 0.4 mm 3 mps 744 mmHg 93%
23:00 +19°C° 0.4 mm 3 mps 744 mmHg 94%

31 July, Saturday

Time Temperature Precipitation Wind Pressure Humidity
00:00 +19°C° 1.1 mm 3 mps 744 mmHg 95%
01:00 +19°C° 1.1 mm 2 mps 744 mmHg 96%
02:00 +19°C° 1.1 mm 2 mps 744 mmHg 97%
03:00 +19°C° 0 mm 2 mps 743 mmHg 97%
04:00 +20°C° 0 mm 1 mps 743 mmHg 97%
05:00 +19°C° 0 mm 1 mps 743 mmHg 96%
06:00 +21°C° 0 mm 1 mps 743 mmHg 92%
07:00 +20°C° 0 mm 0 mps 743 mmHg 88%
08:00 +21°C° 0 mm 0 mps 743 mmHg 84%
09:00 +23°C° 0 mm 0 mps 743 mmHg 76%
10:00 +24°C° 0 mm 0 mps 743 mmHg 68%
11:00 +28°C° 0 mm 1 mps 743 mmHg 60%
12:00 +28°C° 0.1 mm 1 mps 743 mmHg 58%
13:00 +28°C° 0.1 mm 2 mps 743 mmHg 57%
14:00 +28°C° 0.1 mm 2 mps 743 mmHg 56%
15:00 +27°C° 0.5 mm 2 mps 742 mmHg 63%
16:00 +26°C° 0.5 mm 2 mps 742 mmHg 70%
17:00 +24°C° 0.5 mm 2 mps 742 mmHg 77%
18:00 +23°C° 0 mm 2 mps 742 mmHg 81%
19:00 +23°C° 0 mm 2 mps 742 mmHg 85%
20:00 +21°C° 0 mm 2 mps 742 mmHg 88%
21:00 +20°C° 0.1 mm 2 mps 742 mmHg 90%
22:00 +20°C° 0.1 mm 2 mps 742 mmHg 91%
23:00 +20°C° 0.1 mm 2 mps 742 mmHg 92%
Show more